This demonstration page uses our WeatherBlox Daily Observations layout. Learn more.

39.92423, -83.80882

Hourly Observations for September 10, 2016

Temp ( °F °C ) Dew Point ( °F °C ) Humidity (%) Winds ( mph kmh ) Pressure ( in mb ) Visibility ( mi km ) Precip ( " mm )
12:56 am 00:56 Clear 74 23.3 71 21.7 91 91 S 7 11 29.91 1013 10 16.0934 0 0
1:56 am 01:56 Mostly Cloudy 74 23.3 71 21.7 91 91 S 8 13 29.91 1013 10 16.0934 0 0
2:56 am 02:56 Cloudy 75 23.9 71 21.7 88 88 S 6 9 29.9 1013 10 16.0934 0 0
3:56 am 03:56 Mostly Clear 74 23.3 71 21.7 91 91 S 7 11 29.88 1012 10 16.0934 0 0
4:56 am 04:56 Clear 74 23.3 70 21.1 88 88 SSW 6 9 29.88 1012 10 16.0934 0 0
5:56 am 05:56 Mostly Cloudy 73 22.8 69 20.6 87 87 SSW 7 11 29.89 1012 10 16.0934 0 0
6:56 am 06:56 Clear 72 22.2 69 20.6 91 91 SSW 8 13 29.89 1012 10 16.0934 0 0
7:56 am 07:56 Sunny 72 22.2 69 20.6 91 91 SW 9 15 29.91 1013 10 16.0934 0 0
8:56 am 08:56 Mostly Sunny 75 23.9 69 20.6 82 82 SSW 6 9 29.91 1013 10 16.0934 0 0
9:56 am 09:56 Mostly Cloudy 77 25 71 21.7 82 82 SW 14 22 29.91 1013 10 16.0934 0 0
10:23 am 10:23 Mostly Cloudy 77 25 70 21 79 79 SSW 13 20 29.88 1012 10 16.0934 0 0
10:56 am 10:56 Mostly Cloudy 80 26.7 72 22.2 76 76 SSW 10 17 29.9 1013 10 16.0934 0 0
11:10 am 11:10 Partly Cloudy 81 27 73 23 79 79 SSW 7 11 29.88 1012 10 16.0934 0 0
11:36 am 11:36 Mostly Cloudy 81 27 73 23 79 79 SSW 12 19 29.85 1011 10 16.0934 0 0
11:56 am 11:56 Mostly Cloudy 81 27.2 73 22.8 77 77 SSW 9 15 29.89 1012 10 16.0934 0 0
12:14 pm 12:14 Partly Cloudy 82 28 73 23 74 74 SSW 15 24 29.85 1011 10 16.0934 0 0
12:56 pm 12:56 Mostly Cloudy 82 27.8 73 22.8 74 74 SSW 13 20 29.86 1011 10 16.0934 0 0
1:56 pm 13:56 Mostly Cloudy 83 28.3 73 22.8 72 72 SW 17 28 29.85 1011 10 16.0934 0 0
2:56 pm 14:56 Mostly Cloudy 84 28.9 73 22.8 70 70 SSW 12 19 29.82 1010 10 16.0934 0 0
3:38 pm 15:38 Mostly Cloudy with Nearby Thunderstorms 84 29 72 22 66 66 SSW 14 22 29.74 1007 10 16.0934 0 0
3:56 pm 15:56 Mostly Cloudy with Nearby Thunderstorms 80 26.7 72 22.2 76 76 SW 12 19 29.78 1008 10 16.0934 0.01 0.254
4:15 pm 16:15 Cloudy with Thunderstorms 72 22 70 21 94 94 W 23 37 29.83 1010 3 4.82802 0.08 2.032
4:18 pm 16:18 Cloudy with Heavy Thunderstorms 72 22 70 21 94 94 W 22 35 29.85 1011 1.75 2.816345 0.23 5.842
4:23 pm 16:23 Cloudy with Heavy Thunderstorms 70 21 70 21 100 100 WSW 29 46 29.85 1011 1 1.60934 0.49 12.446
4:31 pm 16:31 Cloudy with Heavy Rain 70 21 70 21 100 100 WSW 13 20 29.83 1010 1.25 2.011675 0.7 17.78
4:33 pm 16:33 Cloudy with Heavy Thunderstorms 70 21 70 21 100 100 WSW 9 15 29.83 1010 2 3.21868 0.7 17.78
4:40 pm 16:40 Cloudy with Thunderstorms 70 21 70 21 100 100 VRB 5 7 29.85 1011 10 16.0934 0.71 18.034
4:56 pm 16:56 Cloudy with Heavy Thunderstorms 70 21.1 69 20.6 97 97 W 8 13 29.86 1011 2 3.21868 1.02 25.908
5:05 pm 17:05 Cloudy with Light Thunderstorms 72 22 70 21 94 94 W 12 19 29.85 1011 7 11.26538 0 0.0254
5:19 pm 17:19 Cloudy with Nearby Thunderstorms 72 22 70 21 94 94 W 10 17 29.85 1011 9 14.48406 0.02 0.508
5:34 pm 17:34 Cloudy with Nearby Thunderstorms 72 22 70 21 94 94 WNW 12 19 29.88 1012 9 14.48406 0.04 1.016
5:43 pm 17:43 Cloudy with Light Rain 72 22 70 21 94 94 NW 9 15 29.88 1012 10 16.0934 0.04 1.016
5:54 pm 17:54 Mostly Cloudy with Nearby Thunderstorms 70 21 70 21 100 100 WNW 7 11 29.88 1012 10 16.0934 0.05 1.27
5:56 pm 17:56 Mostly Cloudy with Nearby Thunderstorms 70 21.1 69 20.6 97 97 WNW 7 11 29.89 1012 10 16.0934 0.05 1.27
6:56 pm 18:56 Cloudy with Rain 68 20 67 19.4 96 96 SSW 6 9 29.93 1014 10 16.0934 0.19 4.826
7:56 pm 19:56 Mostly Cloudy 68 20 67 19.4 96 96 SSW 6 9 29.95 1014 10 16.0934 0.04 1.016
8:32 pm 20:32 Cloudy 68 20 66 19 94 94 SSW 6 9 29.94 1014 10 16.0934 0 0
8:56 pm 20:56 Cloudy 68 20 67 19.4 96 96 SW 8 13 29.96 1014 10 16.0934 0 0
9:10 pm 21:10 Cloudy 68 20 66 19 94 94 WSW 6 9 29.97 1015 10 16.0934 0 0
9:56 pm 21:56 Partly Cloudy 67 19.4 65 18.3 93 93 NW 13 20 30.01 1016 10 16.0934 0 0
10:56 pm 22:56 Clear 64 17.8 61 16.1 90 90 WNW 10 17 30.02 1017 10 16.0934 0 0
11:56 pm 23:56 Clear 63 17.2 59 15 87 87 NW 7 11 30.05 1018 10 16.0934 0 0

Powered by AerisWeather